Overview Statistics Trail Chart Weather Telemetry Raw packets
 

This is the latest recevied weather packets stored in our database for station/object 4S6DRJ-13. If no packets are shown the sender has not sent any weather packets the latest 10 day(s).

<< 140 141 142 143 144 145 146 >>
Time Temp. Humidity Pressure Rain* Wind** Luminosity Snow
1788250458 31.11° C 71% 1008.3 hPa 0 mm 0.45 m/s, 217° 428 W/m² -
1788250397 31.11° C 70% 1008.2 hPa 0 mm 1.79 m/s, 344° 576 W/m² -
1788250337 31.11° C 69% 1008.1 hPa 0 mm 0.89 m/s, 130° 1116 W/m² -
1788250275 31.67° C 69% 1008.3 hPa 0 mm 2.24 m/s, 264° 518 W/m² -
1788250215 31.67° C 68% 1008.4 hPa 0 mm 2.24 m/s, 351° 400 W/m² -
1788250153 31.11° C 69% 1008.3 hPa 0 mm 1.79 m/s, 300° 426 W/m² -
1788250093 31.11° C 70% 1008.4 hPa 0 mm 1.34 m/s, 295° 1122 W/m² -
1788250031 31.11° C 69% 1008.3 hPa 0 mm 4.47 m/s, 231° 426 W/m² -
1788249970 31.11° C 69% 1008.5 hPa 0 mm 2.68 m/s, 227° 1127 W/m² -
1788249909 31.11° C 69% 1008.2 hPa 0 mm 2.68 m/s, 154° 1132 W/m² -
1788249863 31.11° C 70% 1008.5 hPa 0 mm 1.34 m/s, 247° 1109 W/m² -
1788249787 31.11° C 71% 1008.4 hPa 0 mm 1.34 m/s, 80° 576 W/m² -
1788249727 31.11° C 70% 1008.4 hPa 0 mm 1.79 m/s, 296° 542 W/m² -
1788249665 31.67° C 69% 1008.3 hPa 0 mm 0.89 m/s, 245° 383 W/m² -
1788249605 31.67° C 69% 1008.3 hPa 0 mm 3.13 m/s, 227° 344 W/m² -
1788249544 31.67° C 69% 1008.5 hPa 0 mm 1.79 m/s, 220° 377 W/m² -
1788249482 31.67° C 69% 1008.4 hPa 0 mm 1.79 m/s, 326° 1122 W/m² -
1788249421 31.67° C 67% 1008.4 hPa 0 mm 3.13 m/s, 145° 898 W/m² -
1788249360 31.67° C 68% 1008.5 hPa 0 mm 1.34 m/s, 325° 862 W/m² -
1788249300 31.67° C 68% 1008.5 hPa 0 mm 2.68 m/s, 228° 457 W/m² -
1788249239 31.67° C 67% 1008.4 hPa 0 mm 2.24 m/s, 197° 1124 W/m² -
1788249177 31.67° C 67% 1008.6 hPa 0 mm 2.24 m/s, 234° 1132 W/m² -
1788249116 31.67° C 69% 1008.7 hPa 0 mm 0.89 m/s, 205° 504 W/m² -
1788249056 31.11° C 70% 1008.6 hPa 0 mm 0.45 m/s, 52° 414 W/m² -
1788248995 31.11° C 70% 1008.4 hPa 0 mm 2.68 m/s, 191° 1127 W/m² -

* Rain latest hour (hover to see other rain measurements)
** Current wind speed in m/s (hover to see current wind gust speed)